Weather History for KDBN - October, 2011

Change the Weather History Date:

Friday, October 28, 2011

  Actual Average Record
Temperature  
Mean Temperature 64 °F -  
Max Temperature 78 °F 76 °F 90 °F (1984)
Min Temperature 50 °F 46 °F 32 °F (1961)
Degree Days  
Heating Degree Days 1    
Growing Degree Days 14 (Base 50)    
Moisture  
Dew Point 55 °F    
Average Humidity 78    
Maximum Humidity 100    
Minimum Humidity 44    
Precipitation  
Precipitation 0.00 in - - ()
Sea Level Pressure  
Sea Level Pressure 29.94 in    
Wind  
Wind Speed 1 mph (SSW)    
Max Wind Speed 10 mph    
Max Gust Speed 18 mph    
Visibility 9 miles    
Events      
Averages and records for this station are not official NWS values.
T = Trace of Precipitation, MM = Missing Value Source: NWS Daily Summary

Daily Weather History Graph

Daily Weather History Graph

Search for Another Location

Airport or City:

Trip Planner

Search our weather history database for the weather conditions in past years. The results will help you decide how hot, cold, wet, or windy it might be!

Date:

Astronomy

Oct. 28, 2011 Rise Set
Actual Time 7:45 AM EDT 6:45 PM EDT
Civil Twilight 7:20 AM EDT 7:10 PM EDT
Nautical Twilight 6:51 AM EDT 7:39 PM EDT
Astronomical Twilight 6:22 AM EDT 8:07 PM EDT
Moon 9:50 AM EDT (10/28) 8:17 PM EDT (10/28)
Length of Visible Light 11h 49m
Length of Day
10h 59m
Waxing Crescent, 5% of the Moon is Illuminated
Oct 28
Waxing Crescent
Nov 2
First Quarter
Nov 10
Full
Nov 18
Last Quarter
Nov 25
New

Hourly Weather History & Observations

Time (EDT) Temp. Dew Point Humidity Pressure Visibility Wind Dir Wind Speed Gust Speed Precip Events Conditions
12:15 AM 55.4 °F 55.4 °F 100% 29.94 in 10.0 mi Calm Calm - N/A   Clear
12:55 AM 53.6 °F 51.8 °F 94% 29.93 in 10.0 mi Calm Calm - N/A   Clear
1:15 AM 53.6 °F 51.8 °F 94% 29.93 in 10.0 mi Calm Calm - N/A   Clear
1:35 AM 53.6 °F 51.8 °F 94% 29.93 in 10.0 mi Calm Calm - N/A   Clear
1:55 AM 53.6 °F 53.6 °F 100% 29.94 in 10.0 mi Calm Calm - N/A   Clear
2:15 AM 51.8 °F 51.8 °F 100% 29.94 in 10.0 mi Calm Calm - N/A   Clear
2:35 AM 51.8 °F 51.8 °F 100% 29.94 in 10.0 mi Calm Calm - N/A   Clear
2:55 AM 53.6 °F 51.8 °F 94% 29.93 in 10.0 mi Calm Calm - N/A   Clear
3:15 AM 51.8 °F 51.8 °F 100% 29.93 in 7.0 mi Calm Calm - N/A   Clear
3:35 AM 51.8 °F 51.8 °F 100% 29.93 in 7.0 mi Calm Calm - N/A   Clear
3:55 AM 51.8 °F 51.8 °F 100% 29.94 in 7.0 mi Calm Calm - N/A   Clear
4:15 AM 51.8 °F 51.8 °F 100% 29.94 in 7.0 mi Calm Calm - N/A   Clear
4:35 AM 51.8 °F 51.8 °F 100% 29.94 in 10.0 mi Calm Calm - N/A   Clear
4:55 AM 50.0 °F 50.0 °F 100% 29.94 in 4.0 mi Calm Calm - N/A   Clear
5:15 AM 50.0 °F 50.0 °F 100% 29.95 in 7.0 mi Calm Calm - N/A   Clear
5:35 AM 51.8 °F 51.8 °F 100% 29.95 in 7.0 mi Calm Calm - N/A   Clear
5:55 AM 50.0 °F 50.0 °F 100% 29.96 in 7.0 mi Calm Calm - N/A   Clear
6:15 AM 51.8 °F 51.8 °F 100% 29.96 in 7.0 mi North 8.1 mph - N/A   Clear
6:35 AM 53.6 °F 53.6 °F 100% 29.96 in 10.0 mi Calm Calm - N/A   Clear
6:55 AM 53.6 °F 51.8 °F 94% 29.97 in 10.0 mi Calm Calm - N/A   Clear
7:15 AM 51.8 °F 51.8 °F 100% 29.97 in 7.0 mi Calm Calm - N/A   Clear
7:55 AM 51.8 °F 51.8 °F 100% 29.97 in 4.0 mi Calm Calm - N/A   Clear
8:15 AM 51.8 °F 51.8 °F 100% 29.98 in 5.0 mi Calm Calm - N/A   Clear
8:35 AM 53.6 °F 53.6 °F 100% 29.98 in 5.0 mi Calm Calm - N/A   Clear
8:55 AM 55.4 °F 53.6 °F 94% 29.98 in 10.0 mi Calm Calm - N/A   Clear
9:15 AM 59.0 °F 55.4 °F 88% 29.99 in 10.0 mi Calm Calm - N/A   Clear
9:35 AM 60.8 °F 55.4 °F 82% 29.99 in 10.0 mi Calm Calm - N/A   Clear
9:55 AM 62.6 °F 57.2 °F 82% 29.99 in 10.0 mi Calm Calm - N/A   Clear
10:15 AM 64.4 °F 57.2 °F 77% 29.99 in 10.0 mi Calm Calm - N/A   Clear
10:35 AM 68.0 °F 57.2 °F 68% 29.99 in 10.0 mi Calm Calm - N/A   Clear
10:55 AM 69.8 °F 57.2 °F 64% 29.99 in 10.0 mi Calm Calm - N/A   Clear
11:15 AM 71.6 °F 57.2 °F 60% 29.99 in 10.0 mi Calm Calm - N/A   Clear
11:35 AM 73.4 °F 57.2 °F 57% 29.99 in 10.0 mi Calm Calm - N/A   Clear
11:55 AM 75.2 °F 59.0 °F 57% 29.98 in 10.0 mi Calm Calm - N/A   Clear
12:15 PM 75.2 °F 59.0 °F 57% 29.97 in 10.0 mi Calm Calm - N/A   Clear
12:35 PM 75.2 °F 59.0 °F 57% 29.96 in 10.0 mi South 3.5 mph - N/A   Scattered Clouds
1:15 PM 77.0 °F 59.0 °F 54% 29.95 in 10.0 mi SSW 4.6 mph - N/A   Overcast
1:35 PM 77.0 °F 59.0 °F 54% 29.94 in 10.0 mi WSW 9.2 mph - N/A   Mostly Cloudy
1:55 PM 77.0 °F 59.0 °F 54% 29.93 in 10.0 mi SSW 6.9 mph - N/A   Mostly Cloudy
2:15 PM 77.0 °F 59.0 °F 54% 29.92 in 10.0 mi SW 6.9 mph - N/A   Mostly Cloudy
2:35 PM 77.0 °F 59.0 °F 54% 29.91 in 10.0 mi SW 9.2 mph - N/A   Overcast
3:15 PM 78.8 °F 55.4 °F 44% 29.90 in 10.0 mi SSW 10.4 mph 18.4 mph N/A   Scattered Clouds
3:35 PM 78.8 °F 55.4 °F 44% 29.89 in 10.0 mi SSW 6.9 mph 16.1 mph N/A   Scattered Clouds
3:55 PM 78.8 °F 57.2 °F 47% 29.89 in 10.0 mi SSW 10.4 mph - N/A   Mostly Cloudy
4:15 PM 78.8 °F 57.2 °F 47% 29.89 in 10.0 mi South 9.2 mph - N/A   Scattered Clouds
4:35 PM 78.8 °F 57.2 °F 47% 29.89 in 10.0 mi South 4.6 mph - N/A   Clear
4:55 PM 77.0 °F 59.0 °F 54% 29.89 in 10.0 mi SSW 6.9 mph - N/A   Clear
5:15 PM 77.0 °F 59.0 °F 54% 29.89 in 10.0 mi WSW 3.5 mph - N/A   Mostly Cloudy
5:35 PM 77.0 °F 59.0 °F 54% 29.90 in 10.0 mi SSW 3.5 mph - N/A   Scattered Clouds
5:55 PM 73.4 °F 59.0 °F 61% 29.89 in 10.0 mi SW 4.6 mph - N/A   Clear
6:15 PM 73.4 °F 60.8 °F 65% 29.90 in 10.0 mi Calm Calm - N/A   Mostly Cloudy
6:35 PM 73.4 °F 60.8 °F 65% 29.90 in 10.0 mi SSW 5.8 mph - N/A   Overcast
6:55 PM 71.6 °F 60.8 °F 69% 29.90 in 10.0 mi SSW 4.6 mph - N/A   Mostly Cloudy
7:15 PM 69.8 °F 60.8 °F 73% 29.90 in 10.0 mi Calm Calm - N/A   Scattered Clouds
7:35 PM 69.8 °F 60.8 °F 73% 29.90 in 10.0 mi Calm Calm - N/A   Scattered Clouds
7:55 PM 69.8 °F 60.8 °F 73% 29.90 in 10.0 mi Calm Calm - N/A   Overcast
8:15 PM 68.0 °F 60.8 °F 78% 29.91 in 10.0 mi Calm Calm - N/A   Overcast
8:35 PM 68.0 °F 62.6 °F 83% 29.91 in 10.0 mi Calm Calm - N/A   Overcast
8:55 PM 68.0 °F 60.8 °F 78% 29.91 in 10.0 mi Calm Calm - N/A   Overcast
9:15 PM 64.4 °F 60.8 °F 88% 29.91 in 10.0 mi Calm Calm - N/A   Overcast
9:35 PM 64.4 °F 62.6 °F 94% 29.90 in 10.0 mi Calm Calm - N/A   Overcast
9:55 PM 66.2 °F 60.8 °F 83% 29.90 in 10.0 mi Calm Calm - N/A   Overcast
10:15 PM 66.2 °F 60.8 °F 83% 29.90 in 10.0 mi Calm Calm - N/A   Overcast
10:35 PM 66.2 °F 62.6 °F 88% 29.90 in 10.0 mi Calm Calm - N/A   Overcast
10:55 PM 66.2 °F 60.8 °F 83% 29.90 in 10.0 mi Calm Calm - N/A   Overcast
11:15 PM 64.4 °F 62.6 °F 94% 29.90 in 10.0 mi Calm Calm - N/A   Overcast
11:35 PM 66.2 °F 60.8 °F 83% 29.90 in 10.0 mi Calm Calm - N/A   Overcast
11:55 PM 66.2 °F 62.6 °F 88% 29.91 in 10.0 mi North 4.6 mph - N/A   Overcast